Location: Chochol
(49.7771°N, 14.9780°E)
Time: 22:59:43
(UTC+00:00)

STARLINK-1138 - Pass Details

Date: 09 April 2020
Orbit: 548 x 551 km, 53.0° (Epoch: 27 May)

Event Time Altitude Azimuth Distance (km) Brightness Sun altitude
Rises 19:59:26 0° 293° (WNW) 2,726 8.5 -20.0°
Reaches altitude 10° 20:01:44 10° 287° (WNW) 1,830 7.2 -20.3°
Maximum altitude 20:05:42 46° 214° (SW) 750 4.2 -20.8°
Enters shadow 20:06:05 44° 196° (SSW) 767 4.1 -20.8°
